Time,TemperatureF,DewpointF,PressureIn,WindDirection,WindDirectionDegrees,WindSpeedMPH,WindSpeedGustMPH,Humidity,HourlyPrecipIn,Conditions,Clouds,dailyrainin,SoftwareType,DateUTC
2013-02-03 00:02:00,8.7,6.0,30.07,SSW,209,0.0,2.0,87,0.00,,,0.00,weatherlink.com 1.10,2013-02-03 05:02:00,
2013-02-03 00:16:00,7.9,5.0,30.07,SSW,209,2.0,3.0,87,0.00,,,0.00,weatherlink.com 1.10,2013-02-03 05:16:00,
2013-02-03 00:32:00,6.7,4.0,30.07,SSW,209,0.0,0.0,88,0.00,,,0.00,weatherlink.com 1.10,2013-02-03 05:32:00,
2013-02-03 00:47:00,7.1,4.0,30.07,SSW,209,1.0,1.0,88,0.00,,,0.00,weatherlink.com 1.10,2013-02-03 05:47:00,
2013-02-03 01:02:00,8.1,5.0,30.06,SW,220,2.0,5.0,88,0.00,,,0.00,weatherlink.com 1.10,2013-02-03 06:02:00,
2013-02-03 01:17:00,7.2,4.0,30.06,WSW,240,1.0,3.0,88,0.00,,,0.00,weatherlink.com 1.10,2013-02-03 06:17:00,
2013-02-03 01:32:00,4.9,2.0,30.06,WSW,240,0.0,1.0,87,0.00,,,0.00,weatherlink.com 1.10,2013-02-03 06:32:00,
2013-02-03 01:47:00,3.9,1.0,30.06,WSW,240,0.0,0.0,88,0.00,,,0.00,weatherlink.com 1.10,2013-02-03 06:47:00,
2013-02-03 02:02:00,3.7,1.0,30.06,WSW,240,0.0,0.0,89,0.00,,,0.00,weatherlink.com 1.10,2013-02-03 07:02:00,
2013-02-03 02:17:00,2.8,0.0,30.06,WSW,240,0.0,0.0,87,0.00,,,0.00,weatherlink.com 1.10,2013-02-03 07:17:00,
2013-02-03 02:32:00,2.4,0.0,30.06,WSW,240,0.0,0.0,88,0.00,,,0.00,weatherlink.com 1.10,2013-02-03 07:32:00,
2013-02-03 02:47:00,1.8,-1.0,30.06,WSW,240,0.0,0.0,88,0.00,,,0.00,weatherlink.com 1.10,2013-02-03 07:47:00,
2013-02-03 03:02:00,1.7,-1.0,30.05,WSW,240,0.0,0.0,88,0.00,,,0.00,weatherlink.com 1.10,2013-02-03 08:02:00,
2013-02-03 03:18:00,0.9,-2.0,30.05,WSW,240,0.0,0.0,87,0.00,,,0.00,weatherlink.com 1.10,2013-02-03 08:18:00,
2013-02-03 03:33:00,0.9,-2.0,30.05,WSW,240,0.0,0.0,87,0.00,,,0.00,weatherlink.com 1.10,2013-02-03 08:33:00,
2013-02-03 03:48:00,0.2,-3.0,30.05,WSW,240,0.0,0.0,87,0.00,,,0.00,weatherlink.com 1.10,2013-02-03 08:48:00,
2013-02-03 04:03:00,0.3,-3.0,30.05,WSW,240,0.0,0.0,87,0.00,,,0.00,weatherlink.com 1.10,2013-02-03 09:03:00,
2013-02-03 04:18:00,0.1,-3.0,30.05,WSW,240,0.0,0.0,87,0.00,,,0.00,weatherlink.com 1.10,2013-02-03 09:18:00,
2013-02-03 04:33:00,-0.1,-3.0,30.04,WSW,240,0.0,0.0,87,0.00,,,0.00,weatherlink.com 1.10,2013-02-03 09:33:00,
2013-02-03 04:48:00,-0.2,-3.0,30.04,WSW,240,0.0,0.0,87,0.00,,,0.00,weatherlink.com 1.10,2013-02-03 09:48:00,
2013-02-03 05:04:00,-0.4,-3.0,30.04,WSW,240,0.0,0.0,87,0.00,,,0.00,weatherlink.com 1.10,2013-02-03 10:04:00,
2013-02-03 05:19:00,-0.8,-4.0,30.04,WSW,240,0.0,0.0,86,0.00,,,0.00,weatherlink.com 1.10,2013-02-03 10:19:00,
2013-02-03 05:34:00,-0.9,-4.0,30.04,WSW,240,0.0,0.0,87,0.00,,,0.00,weatherlink.com 1.10,2013-02-03 10:34:00,
2013-02-03 05:49:00,-1.0,-4.0,30.03,WSW,240,0.0,0.0,87,0.00,,,0.00,weatherlink.com 1.10,2013-02-03 10:49:00,
2013-02-03 06:04:00,-1.2,-4.0,30.03,WSW,240,0.0,0.0,87,0.00,,,0.00,weatherlink.com 1.10,2013-02-03 11:04:00,
2013-02-03 06:20:00,-1.4,-4.0,30.03,WSW,240,0.0,0.0,87,0.00,,,0.00,weatherlink.com 1.10,2013-02-03 11:20:00,
2013-02-03 06:34:00,-1.6,-5.0,30.03,WSW,240,0.0,0.0,87,0.00,,,0.00,weatherlink.com 1.10,2013-02-03 11:34:00,
2013-02-03 06:49:00,-1.8,-5.0,30.03,WSW,240,0.0,0.0,87,0.00,,,0.00,weatherlink.com 1.10,2013-02-03 11:49:00,
2013-02-03 07:05:00,-1.8,-5.0,30.03,WSW,240,0.0,0.0,87,0.00,,,0.00,weatherlink.com 1.10,2013-02-03 12:05:00,
2013-02-03 07:20:00,-1.8,-5.0,30.03,WSW,240,0.0,0.0,87,0.00,,,0.00,weatherlink.com 1.10,2013-02-03 12:20:00,
2013-02-03 07:35:00,-1.1,-4.0,30.03,WSW,240,0.0,2.0,87,0.00,,,0.00,weatherlink.com 1.10,2013-02-03 12:35:00,
2013-02-03 07:50:00,2.0,-1.0,30.03,SW,235,0.0,2.0,88,0.00,,,0.00,weatherlink.com 1.10,2013-02-03 12:50:00,
2013-02-03 08:06:00,6.9,4.0,30.03,SSW,211,0.0,3.0,88,0.00,,,0.00,weatherlink.com 1.10,2013-02-03 13:06:00,
2013-02-03 08:20:00,7.5,5.0,30.02,SSW,211,0.0,2.0,88,0.00,,,0.00,weatherlink.com 1.10,2013-02-03 13:20:00,
2013-02-03 08:35:00,9.8,7.0,30.02,South,188,3.0,6.0,87,0.00,,,0.00,weatherlink.com 1.10,2013-02-03 13:35:00,
2013-02-03 08:51:00,11.2,8.0,30.01,SSW,194,6.0,7.0,86,0.00,,,0.00,weatherlink.com 1.10,2013-02-03 13:51:00,
2013-02-03 09:06:00,10.9,7.0,30.01,South,180,0.0,5.0,84,0.00,,,0.00,weatherlink.com 1.10,2013-02-03 14:06:00,
2013-02-03 09:21:00,12.5,8.0,30.00,SSW,209,5.0,9.0,82,0.00,,,0.00,weatherlink.com 1.10,2013-02-03 14:21:00,
2013-02-03 09:36:00,12.8,8.0,30.00,South,170,8.0,12.0,81,0.00,,,0.00,weatherlink.com 1.10,2013-02-03 14:36:00,
2013-02-03 09:51:00,13.1,8.0,30.00,South,178,13.0,15.0,80,0.00,,,0.00,weatherlink.com 1.10,2013-02-03 14:51:00,
2013-02-03 10:06:00,13.3,8.0,30.00,South,184,15.0,15.0,79,0.00,,,0.00,weatherlink.com 1.10,2013-02-03 15:06:00,
2013-02-03 10:22:00,13.2,8.0,30.00,South,182,9.0,16.0,79,0.00,,,0.00,weatherlink.com 1.10,2013-02-03 15:22:00,
2013-02-03 10:37:00,13.9,8.0,30.00,South,178,6.0,14.0,78,0.00,,,0.00,weatherlink.com 1.10,2013-02-03 15:37:00,
2013-02-03 10:52:00,13.9,8.0,29.99,SSW,213,9.0,17.0,76,0.00,,,0.00,weatherlink.com 1.10,2013-02-03 15:52:00,
2013-02-03 11:07:00,14.1,7.0,29.98,South,188,5.0,17.0,74,0.00,,,0.00,weatherlink.com 1.10,2013-02-03 16:07:00,
2013-02-03 11:22:00,14.5,8.0,29.97,SW,219,10.0,15.0,75,0.00,,,0.00,weatherlink.com 1.10,2013-02-03 16:22:00,
2013-02-03 11:37:00,14.9,8.0,29.97,SW,225,3.0,11.0,74,0.00,,,0.00,weatherlink.com 1.10,2013-02-03 16:37:00,
2013-02-03 11:52:00,15.1,8.0,29.96,South,190,4.0,12.0,74,0.00,,,0.00,weatherlink.com 1.10,2013-02-03 16:52:00,
2013-02-03 12:07:00,15.4,8.0,29.95,South,180,4.0,13.0,72,0.00,,,0.00,weatherlink.com 1.10,2013-02-03 17:07:00,
2013-02-03 12:23:00,15.4,7.0,29.94,SSE,165,7.0,14.0,70,0.00,,,0.00,weatherlink.com 1.10,2013-02-03 17:23:00,
2013-02-03 12:38:00,15.8,7.0,29.93,South,170,3.0,10.0,68,0.00,,,0.00,weatherlink.com 1.10,2013-02-03 17:38:00,
2013-02-03 12:53:00,16.0,7.0,29.92,South,186,7.0,10.0,68,0.00,,,0.00,weatherlink.com 1.10,2013-02-03 17:53:00,
2013-02-03 13:08:00,16.2,6.0,29.92,SSW,194,5.0,7.0,65,0.00,,,0.00,weatherlink.com 1.10,2013-02-03 18:08:00,
2013-02-03 13:23:00,16.7,5.0,29.91,SSE,156,4.0,7.0,61,0.00,,,0.00,weatherlink.com 1.10,2013-02-03 18:23:00,
2013-02-03 13:38:00,16.6,4.0,29.90,SSE,163,2.0,9.0,59,0.00,,,0.00,weatherlink.com 1.10,2013-02-03 18:38:00,
2013-02-03 13:54:00,17.3,4.0,29.89,SSW,207,4.0,7.0,56,0.00,,,0.00,weatherlink.com 1.10,2013-02-03 18:54:00,
2013-02-03 14:09:00,17.5,3.0,29.89,SW,216,3.0,6.0,54,0.00,,,0.00,weatherlink.com 1.10,2013-02-03 19:09:00,
2013-02-03 14:24:00,17.0,1.0,29.88,South,180,1.0,3.0,49,0.00,,,0.00,weatherlink.com 1.10,2013-02-03 19:24:00,
2013-02-03 14:39:00,17.1,4.0,29.88,South,179,0.0,3.0,56,0.00,,,0.00,weatherlink.com 1.10,2013-02-03 19:39:00,
2013-02-03 14:54:00,17.4,3.0,29.88,SE,144,2.0,3.0,54,0.00,,,0.00,weatherlink.com 1.10,2013-02-03 19:54:00,
2013-02-03 15:09:00,17.6,4.0,29.87,ESE,120,0.0,2.0,55,0.00,,,0.00,weatherlink.com 1.10,2013-02-03 20:09:00,
2013-02-03 15:24:00,17.9,4.0,29.87,ESE,119,0.0,0.0,54,0.00,,,0.00,weatherlink.com 1.10,2013-02-03 20:24:00,
2013-02-03 15:40:00,17.7,3.0,29.86,ESE,119,0.0,2.0,53,0.00,,,0.00,weatherlink.com 1.10,2013-02-03 20:40:00,
2013-02-03 15:55:00,17.5,5.0,29.86,ENE,68,7.0,8.0,58,0.00,,,0.00,weatherlink.com 1.10,2013-02-03 20:55:00,
2013-02-03 16:10:00,17.7,5.0,29.85,East,98,5.0,7.0,58,0.00,,,0.00,weatherlink.com 1.10,2013-02-03 21:10:00,
2013-02-03 16:25:00,17.2,5.0,29.85,ESE,105,4.0,8.0,59,0.00,,,0.00,weatherlink.com 1.10,2013-02-03 21:25:00,
2013-02-03 16:40:00,17.0,5.0,29.85,SE,132,3.0,5.0,59,0.00,,,0.00,weatherlink.com 1.10,2013-02-03 21:40:00,
2013-02-03 16:55:00,16.1,5.0,29.84,South,185,3.0,5.0,61,0.00,,,0.00,weatherlink.com 1.10,2013-02-03 21:55:00,
2013-02-03 17:10:00,15.4,5.0,29.85,South,186,2.0,4.0,63,0.00,,,0.00,weatherlink.com 1.10,2013-02-03 22:10:00,
2013-02-03 17:25:00,14.4,5.0,29.84,South,188,1.0,3.0,65,0.00,,,0.00,weatherlink.com 1.10,2013-02-03 22:25:00,
2013-02-03 17:41:00,14.1,5.0,29.84,SSW,192,2.0,5.0,66,0.00,,,0.00,weatherlink.com 1.10,2013-02-03 22:41:00,
2013-02-03 17:55:00,13.5,4.0,29.84,SSW,193,2.0,3.0,67,0.00,,,0.00,weatherlink.com 1.10,2013-02-03 22:55:00,
2013-02-03 18:11:00,10.9,4.0,29.83,SSW,193,0.0,2.0,74,0.00,,,0.00,weatherlink.com 1.10,2013-02-03 23:11:00,
2013-02-03 18:26:00,10.4,4.0,29.82,SSW,193,0.0,0.0,75,0.00,,,0.00,weatherlink.com 1.10,2013-02-03 23:26:00,
2013-02-03 18:41:00,8.9,4.0,29.82,SSW,193,0.0,2.0,80,0.00,,,0.00,weatherlink.com 1.10,2013-02-03 23:41:00,
2013-02-03 18:56:00,8.2,4.0,29.81,SSW,193,0.0,0.0,81,0.00,,,0.00,weatherlink.com 1.10,2013-02-03 23:56:00,
2013-02-03 19:11:00,7.2,3.0,29.81,SSW,193,2.0,2.0,83,0.00,,,0.00,weatherlink.com 1.10,2013-02-04 00:11:00,
2013-02-03 19:26:00,9.9,4.0,29.81,SSW,193,0.0,1.0,77,0.00,,,0.00,weatherlink.com 1.10,2013-02-04 00:26:00,
2013-02-03 19:41:00,6.9,3.0,29.81,SSW,193,0.0,0.0,83,0.00,,,0.00,weatherlink.com 1.10,2013-02-04 00:41:00,
2013-02-03 19:57:00,6.4,3.0,29.80,SSW,193,0.0,2.0,85,0.00,,,0.00,weatherlink.com 1.10,2013-02-04 00:57:00,
2013-02-03 20:12:00,5.8,3.0,29.81,SSW,193,0.0,0.0,86,0.00,,,0.00,weatherlink.com 1.10,2013-02-04 01:12:00,
2013-02-03 20:27:00,5.6,3.0,29.81,SSW,193,0.0,2.0,87,0.00,,,0.00,weatherlink.com 1.10,2013-02-04 01:27:00,
2013-02-03 20:42:00,6.0,3.0,29.81,SSW,193,0.0,3.0,86,0.00,,,0.00,weatherlink.com 1.10,2013-02-04 01:42:00,
2013-02-03 20:57:00,5.4,2.0,29.81,SSW,193,2.0,3.0,86,0.00,,,0.00,weatherlink.com 1.10,2013-02-04 01:57:00,
2013-02-03 21:13:00,6.6,3.0,29.80,SSW,198,3.0,3.0,85,0.00,,,0.00,weatherlink.com 1.10,2013-02-04 02:13:00,
2013-02-03 21:27:00,7.2,4.0,29.80,SSW,203,2.0,3.0,85,0.00,,,0.00,weatherlink.com 1.10,2013-02-04 02:27:00,
2013-02-03 21:42:00,11.1,5.0,29.79,SSW,204,1.0,4.0,75,0.00,,,0.00,weatherlink.com 1.10,2013-02-04 02:42:00,
2013-02-03 21:58:00,10.1,4.0,29.78,SSW,204,0.0,2.0,77,0.00,,,0.00,weatherlink.com 1.10,2013-02-04 02:58:00,
2013-02-03 22:13:00,8.4,4.0,29.78,SSW,204,0.0,0.0,81,0.00,,,0.00,weatherlink.com 1.10,2013-02-04 03:13:00,
2013-02-03 22:28:00,8.7,4.0,29.77,SSW,204,0.0,0.0,82,0.00,,,0.00,weatherlink.com 1.10,2013-02-04 03:28:00,
2013-02-03 22:43:00,8.1,4.0,29.77,SSW,204,0.0,0.0,84,0.00,,,0.00,weatherlink.com 1.10,2013-02-04 03:43:00,
2013-02-03 22:59:00,8.2,4.0,29.76,SSW,204,0.0,0.0,84,0.00,,,0.00,weatherlink.com 1.10,2013-02-04 03:59:00,
2013-02-03 23:14:00,8.6,5.0,29.76,SSW,204,0.0,0.0,84,0.00,,,0.00,weatherlink.com 1.10,2013-02-04 04:14:00,
2013-02-03 23:28:00,8.3,5.0,29.75,SSW,204,0.0,0.0,86,0.00,,,0.00,weatherlink.com 1.10,2013-02-04 04:28:00,
2013-02-03 23:44:00,7.9,5.0,29.74,SSW,204,0.0,0.0,86,0.00,,,0.00,weatherlink.com 1.10,2013-02-04 04:44:00,
2013-02-03 23:59:00,8.1,5.0,29.74,SSW,204,0.0,0.0,85,0.00,,,0.00,weatherlink.com 1.10,2013-02-04 04:59:00,